SM2GSR-2 Weather Reports


Display with metric or nautical units.
time (UTC)temp
F
wind
direction
speed
MPH
gust
MPH
rain 1hr
in
rain 24hr
in
rain mn
in
humidity
%
barometer
mb
20260510105504 46 250 1.0 3.0 0.00 0.00 0.00 72 1003.8
20260510105003 46 250 0.0 3.0 0.00 0.00 0.00 75 1003.8
20260510104503 46 250 0.0 0.0 0.00 0.00 0.00 73 1003.9
20260510104003 46 250 0.0 0.0 0.00 0.00 0.00 73 1003.9
20260510103503 46 250 0.0 0.0 0.00 0.00 0.00 71 1004.0
20260510103004 46 250 0.0 0.0 0.00 0.00 0.00 71 1004.0
20260510102503 46 250 0.0 0.0 0.00 0.00 0.00 68 1004.0
20260510102003 46 250 0.0 0.0 0.00 0.00 0.00 67 1004.0
20260510101503 46 250 0.0 0.0 0.00 0.00 0.00 65 1004.0
20260510101003 47 250 0.0 0.0 0.00 0.00 0.00 65 1004.0
20260510100503 47 289 0.0 0.0 0.00 0.00 0.00 65 1004.1
20260510100004 46 290 0.0 0.0 0.00 0.00 0.00 66 1004.1
20260510095003 46 290 0.0 0.0 0.00 0.00 0.00 68 1004.2
20260510094503 46 290 0.0 1.0 0.00 0.00 0.00 67 1004.3
20260510094004 46 299 0.0 0.0 0.00 0.00 0.00 68 1004.3
20260510093504 46 301 0.0 0.0 0.00 0.00 0.00 67 1004.3
20260510093003 46 247 0.0 0.0 0.00 0.00 0.00 65 1004.5
20260510092503 47 213 0.0 3.0 0.00 0.00 0.00 62 1004.5
20260510092004 47 213 0.0 5.0 0.00 0.00 0.00 62 1004.6
20260510091505 47 193 0.0 0.0 0.00 0.00 0.00 62 1004.6
20260510091005 47 176 1.0 6.0 0.00 0.00 0.00 61 1004.6
20260510090505 47 119 0.0 0.0 0.00 0.00 0.00 62 1004.7
20260510090003 47 119 0.0 0.0 0.00 0.00 0.00 61 1004.7
20260510085504 47 119 0.0 0.0 0.00 0.00 0.00 61 1004.7
20260510085003 47 119 1.0 5.0 0.00 0.00 0.00 61 1004.6
20260510084503 47 130 0.0 0.0 0.00 0.00 0.00 61 1004.6
20260510084004 47 130 1.0 6.0 0.00 0.00 0.00 61 1004.7
20260510083504 47 142 0.0 0.0 0.00 0.00 0.00 61 1004.6
20260510083003 48 142 0.0 0.0 0.00 0.00 0.00 59 1004.7
20260510082504 48 141 0.0 1.0 0.00 0.00 0.00 60 1004.8
20260510082003 48 141 0.0 6.0 0.00 0.00 0.00 60 1004.8
20260510081504 48 202 0.0 6.0 0.00 0.00 0.00 60 1004.9
20260510081004 48 192 2.0 8.0 0.00 0.00 0.00 60 1004.9
20260510080503 48 209 2.0 9.0 0.00 0.00 0.00 59 1005.0
20260510075503 48 188 2.0 6.0 0.00 0.00 0.00 61 1005.1
20260510075004 48 198 2.0 7.0 0.00 0.00 0.00 60 1005.2
20260510074504 48 176 0.0 1.0 0.00 0.00 0.00 62 1005.4
20260510074003 47 200 1.0 3.0 0.00 0.00 0.00 63 1005.3
20260510073504 47 192 2.0 7.0 0.00 0.00 0.00 65 1005.4
20260510073004 46 188 0.0 0.0 0.00 0.00 0.00 64 1005.4
20260510072504 46 201 0.0 0.0 0.00 0.00 0.00 66 1005.5
20260510072003 46 241 2.0 8.0 0.00 0.00 0.00 66 1005.6
20260510071504 45 220 1.0 5.0 0.00 0.00 0.00 67 1005.6
20260510071003 45 212 0.0 1.0 0.00 0.00 0.00 65 1005.6
20260510070503 45 175 0.0 0.0 0.00 0.00 0.00 67 1005.7
20260510065504 45 115 0.0 0.0 0.00 0.00 0.00 70 1005.9
20260510064504 45 115 0.0 3.0 0.00 0.00 0.00 71 1005.9
20260510064003 44 115 1.0 5.0 0.00 0.00 0.00 72 1005.9
20260510063504 44 115 0.0 1.0 0.00 0.00 0.00 74 1005.9
20260510063004 44 135 0.0 6.0 0.00 0.00 0.00 72 1006.0
20260510062504 44 133 2.0 6.0 0.00 0.00 0.00 75 1006.1
20260510061504 42 129 3.0 5.0 0.00 0.00 0.00 79 1006.2
20260510061003 41 145 0.0 1.0 0.00 0.00 0.00 80 1006.2
20260510060504 41 215 0.0 0.0 0.00 0.00 0.00 83 1006.2
20260510055504 41 287 0.0 0.0 0.00 0.00 0.00 80 1006.3
20260510055004 41 291 0.0 0.0 0.00 0.00 0.00 80 1006.3
20260510054503 40 291 0.0 0.0 0.00 0.00 0.00 81 1006.4
20260510054003 40 291 0.0 0.0 0.00 0.00 0.00 81 1006.4
20260510053004 40 291 0.0 0.0 0.00 0.00 0.00 81 1006.5
20260510052503 40 291 0.0 0.0 0.00 0.00 0.00 81 1006.4
20260510052003 40 291 0.0 0.0 0.00 0.00 0.00 81 1006.4
20260510051503 40 291 0.0 0.0 0.00 0.00 0.00 81 1006.4
20260510051004 40 291 0.0 0.0 0.00 0.00 0.00 81 1006.5
20260510050503 40 291 0.0 0.0 0.00 0.00 0.00 81 1006.5
20260510050004 40 291 0.0 0.0 0.00 0.00 0.00 81 1006.6
20260510045503 40 290 0.0 0.0 0.00 0.00 0.00 81 1006.6
20260510045004 40 292 0.0 6.0 0.00 0.00 0.00 81 1006.7
20260510044504 40 304 3.0 7.0 0.00 0.00 0.00 80 1006.7
20260510044004 40 280 0.0 7.0 0.00 0.00 0.00 80 1006.8
20260510043503 40 300 1.0 3.0 0.00 0.00 0.00 80 1006.8
20260510043004 40 291 0.0 0.0 0.00 0.00 0.00 81 1006.8
20260510042503 40 296 0.0 1.0 0.00 0.00 0.00 81 1006.9
20260510042004 40 298 0.0 3.0 0.00 0.00 0.00 80 1006.9
20260510041003 40 290 0.0 7.0 0.00 0.00 0.00 81 1006.5
20260510040503 40 300 1.0 3.0 0.00 0.00 0.00 80 1006.7
20260510040004 40 308 2.0 5.0 0.00 0.00 0.00 80 1006.8
20260510035503 40 293 0.0 6.0 0.00 0.00 0.00 80 1006.8
20260510035004 40 293 0.0 0.0 0.00 0.00 0.00 80 1006.7
20260510034504 40 283 3.0 6.0 0.00 0.00 0.00 79 1006.9
20260510034003 40 307 2.0 8.0 0.00 0.00 0.00 79 1006.9
20260510033503 40 317 3.0 6.0 0.00 0.00 0.00 78 1006.9
20260510033003 40 327 0.0 5.0 0.00 0.00 0.00 78 1006.9
20260510032504 40 269 0.0 2.0 0.00 0.00 0.00 76 1007.0
20260510032003 39 144 0.0 0.0 0.00 0.00 0.00 76 1007.0
20260510031004 38 144 0.0 0.0 0.00 0.00 0.00 77 1006.9
20260510030504 38 144 0.0 0.0 0.00 0.00 0.00 77 1007.0
20260510030004 37 144 0.0 0.0 0.00 0.00 0.00 77 1007.0
20260510025503 37 144 0.0 0.0 0.00 0.00 0.00 76 1007.0
20260510025003 37 144 0.0 0.0 0.00 0.00 0.00 76 1007.0
20260510024504 37 144 0.0 0.0 0.00 0.00 0.00 74 1007.0
20260510024004 38 144 0.0 0.0 0.00 0.00 0.00 73 1007.0
20260510023503 38 144 0.0 0.0 0.00 0.00 0.00 72 1006.9
20260510022504 39 144 0.0 0.0 0.00 0.00 0.00 69 1006.9
20260510022003 40 144 0.0 0.0 0.00 0.00 0.00 68 1006.8
20260510021504 40 144 0.0 0.0 0.00 0.00 0.00 67 1006.9
20260510021004 41 144 0.0 0.0 0.00 0.00 0.00 66 1006.9
20260510020504 41 144 0.0 0.0 0.00 0.00 0.00 66 1007.0
20260510020004 41 144 0.0 0.0 0.00 0.00 0.00 65 1007.0
20260510015004 42 144 0.0 0.0 0.00 0.00 0.00 64 1007.1
20260510014503 42 144 0.0 0.0 0.00 0.00 0.00 63 1007.1
20260510014003 42 144 0.0 0.0 0.00 0.00 0.00 63 1007.2
20260510013504 42 144 0.0 0.0 0.00 0.00 0.00 63 1007.2
20260510013004 42 144 0.0 0.0 0.00 0.00 0.00 63 1007.3
20260510012503 42 144 0.0 0.0 0.00 0.00 0.00 62 1007.5
20260510012003 42 144 0.0 5.0 0.00 0.00 0.00 62 1007.4
20260510011504 42 144 0.0 5.0 0.00 0.00 0.00 62 1007.4
20260510011004 42 147 0.0 0.0 0.00 0.00 0.00 62 1007.4
20260510010504 42 147 0.0 0.0 0.00 0.00 0.00 62 1007.4
20260510005504 41 147 0.0 1.0 0.00 0.00 0.00 62 1007.4
20260510005004 41 147 0.0 0.0 0.00 0.00 0.00 61 1007.5
20260510004504 42 147 0.0 0.0 0.00 0.00 0.00 60 1007.5
20260510004003 42 147 0.0 0.0 0.00 0.00 0.00 59 1007.6
20260510002504 43 147 0.0 0.0 0.00 0.00 0.00 58 1007.7
20260510001504 43 147 0.0 0.0 0.00 0.00 0.00 57 1007.8
20260510001004 43 147 0.0 0.0 0.00 0.00 0.00 57 1007.9
20260510000503 43 147 0.0 0.0 0.00 0.00 0.00 56 1008.0
20260509235504 43 147 0.0 0.0 0.00 0.00 0.00 55 1008.1
20260509235004 43 147 0.0 0.0 0.00 0.00 0.00 55 1008.1
20260509234504 43 147 0.0 0.0 0.00 0.00 0.00 55 1008.1
20260509234004 43 147 1.0 5.0 0.00 0.00 0.00 54 1008.2
20260509233505 43 147 0.0 0.0 0.00 0.00 0.00 54 1008.2
20260509232004 44 146 0.0 6.0 0.00 0.00 0.00 53 1008.4
20260509231503 44 147 0.0 0.0 0.00 0.00 0.00 53 1008.4
20260509230504 44 143 0.0 0.0 0.00 0.00 0.00 53 1008.5
20260509230003 44 143 1.0 6.0 0.00 0.00 0.00 53 1008.6
20260509225503 44 141 0.0 6.0 0.00 0.00 0.00 52 1008.6
20260509225004 44 142 1.0 6.0 0.00 0.00 0.00 53 1008.6
20260509224504 44 141 0.0 0.0 0.00 0.00 0.00 52 1008.7
20260509224004 44 141 0.0 0.0 0.00 0.00 0.00 52 1008.8
20260509223504 44 141 0.0 0.0 0.00 0.00 0.00 52 1008.8
20260509223003 44 141 0.0 0.0 0.00 0.00 0.00 52 1008.8
20260509222504 44 141 0.0 0.0 0.00 0.00 0.00 52 1008.8
20260509222004 44 146 0.0 5.0 0.00 0.00 0.00 52 1008.9
20260509221504 44 148 0.0 0.0 0.00 0.00 0.00 52 1009.0
20260509221004 44 146 1.0 5.0 0.00 0.00 0.00 52 1009.0
20260509220504 44 144 0.0 0.0 0.00 0.00 0.00 52 1009.0
20260509220004 44 144 1.0 6.0 0.00 0.00 0.00 52 1009.1
20260509215004 44 143 0.0 0.0 0.00 0.00 0.00 52 1009.2
20260509214504 44 161 0.0 0.0 0.00 0.00 0.00 52 1009.2
20260509214003 44 161 0.0 0.0 0.00 0.00 0.00 52 1009.3
20260509213504 45 135 0.0 0.0 0.00 0.00 0.00 52 1009.3
20260509213003 45 165 0.0 5.0 0.00 0.00 0.00 51 1009.4
20260509212003 45 150 0.0 0.0 0.00 0.00 0.00 51 1009.5
20260509211503 45 149 1.0 5.0 0.00 0.00 0.00 51 1009.5
20260509210503 45 138 0.0 6.0 0.00 0.00 0.00 50 1009.5
20260509210004 45 142 0.0 0.0 0.00 0.00 0.00 50 1009.6
20260509205504 45 144 0.0 0.0 0.00 0.00 0.00 50 1009.6
20260509205004 46 137 1.0 6.0 0.00 0.00 0.00 49 1009.7
20260509204503 46 148 0.0 6.0 0.00 0.00 0.00 49 1009.7
20260509204004 46 156 0.0 0.0 0.00 0.00 0.00 49 1009.8
20260509203503 46 136 0.0 0.0 0.00 0.00 0.00 48 1009.8
20260509203004 46 152 0.0 0.0 0.00 0.00 0.00 48 1009.9
20260509202503 46 148 0.0 0.0 0.00 0.00 0.00 47 1009.9
20260509202004 46 148 0.0 0.0 0.00 0.00 0.00 47 1010.0
20260509201503 47 165 0.0 0.0 0.00 0.00 0.00 46 1010.0
20260509201004 47 146 0.0 0.0 0.00 0.00 0.00 46 1010.1
20260509200503 47 157 0.0 10.0 0.00 0.00 0.00 46 1010.1
20260509200003 47 132 0.0 5.0 0.00 0.00 0.00 45 1010.2
20260509195503 47 135 1.0 6.0 0.00 0.00 0.00 45 1010.2
20260509195004 47 149 1.0 8.0 0.00 0.00 0.00 45 1010.2
20260509194503 47 151 0.0 8.0 0.00 0.00 0.00 45 1010.2
20260509193004 48 142 0.0 8.0 0.00 0.00 0.00 44 1010.2
20260509192504 48 172 0.0 7.0 0.00 0.00 0.00 44 1010.1
20260509192003 48 149 1.0 12.0 0.00 0.00 0.00 43 1010.2
20260509191504 48 158 0.0 7.0 0.00 0.00 0.00 43 1010.2
20260509190504 49 178 3.0 13.0 0.00 0.00 0.00 42 1010.1
20260509190003 49 152 3.0 12.0 0.00 0.00 0.00 42 1010.0
20260509185503 49 156 2.0 12.0 0.00 0.00 0.00 42 1010.0
20260509185003 49 161 3.0 12.0 0.00 0.00 0.00 41 1010.1
20260509184504 49 143 0.0 8.0 0.00 0.00 0.00 41 1010.1
20260509184003 50 158 3.0 10.0 0.00 0.00 0.00 41 1010.1
20260509183504 50 168 2.0 8.0 0.00 0.00 0.00 41 1010.1
20260509183003 50 145 2.0 13.0 0.00 0.00 0.00 40 1010.0
20260509182504 50 140 2.0 12.0 0.00 0.00 0.00 40 1010.0
20260509182004 51 172 3.0 12.0 0.00 0.00 0.00 40 1010.0
20260509181004 51 177 3.0 10.0 0.00 0.00 0.00 39 1010.1
20260509180503 52 144 2.0 12.0 0.00 0.00 0.00 39 1010.1
20260509180003 52 144 3.0 15.0 0.00 0.00 0.00 39 1010.1
20260509175504 52 150 2.0 12.0 0.00 0.00 0.00 39 1010.1
20260509175004 52 154 2.0 9.0 0.00 0.00 0.00 40 1010.2
20260509174504 53 148 1.0 7.0 0.00 0.00 0.00 40 1010.1
20260509174003 53 148 0.0 5.0 0.00 0.00 0.00 41 1010.2
20260509173503 53 141 0.0 3.0 0.00 0.00 0.00 41 1010.2
20260509173004 53 140 1.0 9.0 0.00 0.00 0.00 41 1010.3
20260509172504 53 157 0.0 6.0 0.00 0.00 0.00 41 1010.3
20260509172003 53 177 2.0 9.0 0.00 0.00 0.00 42 1010.4
20260509171504 53 177 1.0 3.0 0.00 0.00 0.00 42 1010.4
20260509171003 54 148 0.0 7.0 0.00 0.00 0.00 42 1010.3
20260509170504 54 185 1.0 12.0 0.00 0.00 0.00 42 1010.3
20260509170004 54 203 3.0 18.0 0.00 0.00 0.00 42 1010.4
20260509165504 54 184 3.0 13.0 0.00 0.00 0.00 42 1010.4
20260509165003 54 213 2.0 9.0 0.00 0.00 0.00 42 1010.4
20260509164504 54 183 4.0 14.0 0.00 0.00 0.00 42 1010.4
20260509164004 54 178 2.0 8.0 0.00 0.00 0.00 42 1010.4
20260509163503 54 170 0.0 8.0 0.00 0.00 0.00 42 1010.5
20260509163003 55 193 1.0 8.0 0.00 0.00 0.00 42 1010.5
20260509162503 55 197 2.0 6.0 0.00 0.00 0.00 43 1010.6
20260509161504 55 224 3.0 9.0 0.00 0.00 0.00 42 1010.8
20260509160503 55 238 4.0 16.0 0.00 0.00 0.00 41 1011.0
20260509160004 55 208 7.0 14.0 0.00 0.00 0.00 40 1011.0
20260509155504 55 206 6.0 17.0 0.00 0.00 0.00 41 1010.9
20260509154504 55 209 1.0 12.0 0.00 0.00 0.00 43 1011.1
20260509154003 55 301 3.0 16.0 0.00 0.00 0.00 42 1011.2
20260509153503 55 219 1.0 13.0 0.00 0.00 0.00 43 1011.3
20260509153004 55 234 2.0 17.0 0.00 0.00 0.00 43 1011.1
20260509152504 55 234 1.0 10.0 0.00 0.00 0.00 42 1011.1
20260509151504 55 244 5.0 18.0 0.00 0.00 0.00 40 1011.1
20260509151004 55 198 1.0 14.0 0.00 0.00 0.00 39 1011.2
20260509150504 55 206 5.0 13.0 0.00 0.00 0.00 38 1011.3
20260509150003 56 167 3.0 13.0 0.00 0.00 0.00 38 1011.3
20260509145503 56 204 5.0 18.0 0.00 0.00 0.00 37 1011.5
20260509144004 56 219 1.0 9.0 0.00 0.00 0.00 37 1011.3
20260509143503 56 192 3.0 16.0 0.00 0.00 0.00 37 1011.5
20260509142503 56 176 1.0 9.0 0.00 0.00 0.00 38 1011.4
20260509142004 56 193 4.0 9.0 0.00 0.00 0.00 38 1011.5
20260509141504 56 150 1.0 8.0 0.00 0.00 0.00 38 1011.6
20260509140504 56 178 6.0 15.0 0.00 0.00 0.00 38 1011.6
20260509140004 56 178 3.0 14.0 0.00 0.00 0.00 38 1011.6
20260509135504 56 197 6.0 17.0 0.00 0.00 0.00 38 1011.7
20260509135004 56 171 1.0 14.0 0.00 0.00 0.00 39 1011.8
20260509134504 56 181 3.0 12.0 0.00 0.00 0.00 39 1011.9
20260509133503 56 192 2.0 15.0 0.00 0.00 0.00 39 1012.0
20260509133004 56 184 7.0 23.0 0.00 0.00 0.00 39 1012.0
20260509132503 57 206 3.0 12.0 0.00 0.00 0.00 39 1012.1
20260509132003 56 172 5.0 17.0 0.00 0.00 0.00 39 1012.2
20260509131504 56 201 3.0 12.0 0.00 0.00 0.00 39 1012.1
20260509131004 56 195 1.0 8.0 0.00 0.00 0.00 39 1012.2
20260509130504 56 201 5.0 14.0 0.00 0.00 0.00 38 1012.3
20260509130004 56 202 2.0 10.0 0.00 0.00 0.00 38 1012.3
20260509125503 56 185 5.0 12.0 0.00 0.00 0.00 38 1012.3
20260509124504 57 187 7.0 20.0 0.00 0.00 0.00 36 1012.5
20260509124004 57 183 4.0 15.0 0.00 0.00 0.00 36 1012.4
20260509123003 57 224 5.0 16.0 0.00 0.00 0.00 37 1012.5
20260509122504 57 208 4.0 20.0 0.00 0.00 0.00 36 1012.6
20260509121504 57 164 0.0 15.0 0.00 0.00 0.00 36 1012.6
20260509121004 57 153 7.0 21.0 0.00 0.00 0.00 36 1012.6
20260509120004 58 213 2.0 12.0 0.00 0.00 0.00 37 1012.7
20260509114504 57 206 1.0 12.0 0.00 0.00 0.00 36 1012.7
20260509114004 57 176 6.0 18.0 0.00 0.00 0.00 35 1012.8
20260509113504 58 187 7.0 20.0 0.00 0.00 0.00 35 1012.8
20260509113003 58 167 4.0 15.0 0.00 0.00 0.00 36 1012.8
20260509112504 57 160 7.0 17.0 0.00 0.00 0.00 37 1012.8
20260509112004 57 194 2.0 9.0 0.00 0.00 0.00 38 1012.8
20260509111504 57 211 2.0 14.0 0.00 0.00 0.00 37 1012.9
20260509111004 57 174 6.0 17.0 0.00 0.00 0.00 36 1013.0
20260509110503 57 190 1.0 7.0 0.00 0.00 0.00 37 1012.9
20260509110003 57 170 1.0 14.0 0.00 0.00 0.00 36 1012.9